Flag for Portugal Weather past 2 weeks in Lisbon, Portugal

Now
57 °F

Clear.


Feels Like: 54 °F
Forecast: N/A
Wind: 13 mph from Northeast

Location: Lisbon Portela Airport

Current Time: Mar 5, 2015 at 9:16:02 PM

Latest Report: Mar 5, 2015 at 8:30 PM


Visibility: 10 mi

Pressure: 30.33 "Hg

Humidity: 41%

Dew point: 34 °F

Location of LisbonLocation

Historic Weather in Lisbon — Graph

°F

Lisbon temperature yesterday

Maximum temperature yesterday: 70 °F (at 3:00 PM)
Minimum temperature yesterday: 52 °F (at 2:00 AM)
Average temperature yesterday: 59 °F

Past Weeks' High & Low Weather Summary

 TemperatureHumidityPressure
High70 °F (Mar 4, 3:00 PM)100% (Feb 20, 11:30 PM)30.60 "Hg (Feb 20, 11:30 PM)
Low45 °F (Feb 20, 6:00 AM)30% (Mar 5, 4:30 PM)29.92 "Hg (Feb 21, 4:00 AM)
Average54 °F77%30.33 "Hg
* Reported Feb 18 8:00 PM — Mar 5 8:00 PM, Lisbon, Weather by CustomWeather, © 2015

Note: Actual official high and low records may vary slightly from our data, if they occured in-between our weather recording intervals... More about our weather records

Advertising

Lisbon weather history for previous 24 hours

 ConditionsComfort  
Time TempWeatherWind HumidityBarometerVisibility
8:00 PM
Thu, Mar 5
55 °FClear.9 mph44%30.33 "Hg10 mi
7:30 PM57 °FClear.8 mph41%30.33 "Hg10 mi
7:00 PM57 °FClear.8 mph41%30.30 "Hg10 mi
6:30 PM59 °FSunny.9 mph36%30.30 "Hg10 mi
6:00 PM61 °FSunny.10 mph36%30.30 "Hg10 mi
5:30 PM63 °FSunny.12 mph34%30.30 "Hg10 mi
5:00 PM63 °FPassing clouds.14 mph34%30.30 "HgN/A
4:30 PM63 °FSunny.15 mph30%30.30 "Hg10 mi
4:00 PM63 °FSunny.15 mph32%30.30 "Hg10 mi
3:30 PM63 °FSunny.15 mph32%30.30 "Hg10 mi
3:00 PM63 °FSunny.16 mph32%30.33 "Hg10 mi
2:30 PM63 °FSunny.16 mph32%30.33 "Hg10 mi
2:00 PM61 °FSunny.17 mph31%30.33 "Hg10 mi
1:30 PM61 °FPassing clouds.16 mph34%30.36 "HgN/A
1:00 PM61 °FSunny.18 mph34%30.36 "Hg10 mi
12:30 PM59 °FSunny.20 mph34%30.39 "Hg10 mi
12:00 PM57 °FSunny.21 mph36%30.39 "Hg10 mi
11:30 AM57 °FSunny.17 mph36%30.39 "Hg10 mi
11:00 AM55 °FSunny.18 mph38%30.42 "Hg10 mi
10:30 AM54 °FSunny.20 mph41%30.42 "Hg10 mi
10:00 AM52 °FSunny.17 mph47%30.42 "Hg10 mi
9:30 AM52 °FSunny.15 mph44%30.42 "Hg10 mi
9:00 AM50 °FSunny.17 mph43%30.42 "Hg10 mi
8:30 AM50 °FSunny.16 mph43%30.42 "Hg10 mi
8:00 AM48 °FSunny.14 mph46%30.42 "Hg10 mi
7:30 AM48 °FSunny.13 mph50%30.39 "Hg10 mi
7:00 AM48 °FClear.16 mph46%30.39 "Hg10 mi
6:30 AM50 °FClear.18 mph47%30.39 "Hg10 mi
6:00 AM50 °FClear.16 mph50%30.39 "Hg10 mi
5:30 AM52 °FClear.15 mph50%30.39 "Hg10 mi
5:00 AM52 °FClear.15 mph47%30.39 "Hg10 mi
4:00 AM54 °FClear.16 mph44%30.39 "Hg10 mi
3:30 AM54 °FClear.15 mph44%30.39 "Hg10 mi
3:00 AM54 °FClear.17 mph47%30.39 "Hg10 mi
2:00 AM55 °FClear.16 mph44%30.42 "Hg10 mi
1:30 AM55 °FClear.13 mph44%30.39 "Hg10 mi
1:00 AM57 °FClear.14 mph41%30.39 "Hg10 mi
12:30 AM57 °FClear.14 mph41%30.39 "Hg10 mi
12:00 AM59 °FPassing clouds.15 mph42%30.42 "HgN/A
11:30 PM
Wed, Mar 4
59 °FClear.14 mph42%30.42 "Hg10 mi
11:00 PM61 °FClear.14 mph39%30.42 "Hg10 mi
10:30 PM61 °FClear.16 mph42%30.39 "Hg10 mi
10:00 PM61 °FClear.13 mph45%30.39 "Hg10 mi
9:00 PM59 °FClear.10 mph68%30.39 "Hg10 mi
Weather by CustomWeather, © 2015

See weather overviewHow to use our weather pages